User: anonymous   Login
Location: Mississauga
(43.5802°N, 79.6166°W)
Time: 08:42:57
(UTC-05:00)
Language:

Cosmos 1437 Rocket - Orbit

View from above orbital plane
View from above orbital plane
View from above satellite
View from above satellite

Ground track
Ground track

The orbit data is extracted from the following two-line orbital elements,

1 13771U 83003B   14329.79941672  .00001910  00000-0  12451-3 0  1840
2 13771 081.1559 358.9372 0029880 214.1912 145.7389 15.07104509732881
Epoch (UTC): 25 November 2014 19:11:09
Eccentricity: 0.0029880
inclination: 81.1559°
perigee height: 524 km
apogee height: 566 km
right ascension of ascending node: 358.9372°
argument of perigee: 214.1912°
revolutions per day: 15.07104509
mean anomaly at epoch: 145.7389°
orbit number at epoch: 73288

The dashed part of the orbit path shows where the satellite is in the earth's shadow,  

DLR